TimeEST,TemperatureF,Dew PointF,Humidity,Sea Level PressureIn,VisibilityMPH,Wind Direction,Wind SpeedMPH,Gust SpeedMPH,PrecipitationIn,Events,Conditions,WindDirDegrees,DateUTC
12:02 AM,30.2,30.2,100,30.06,4.0,ENE,3.5,-,N/A,Rain,Light Freezing Rain,60,2012-12-10 05:02:00
12:45 AM,32.0,30.2,93,30.03,3.0,Calm,Calm,-,N/A,,Overcast,0,2012-12-10 05:45:00
12:53 AM,32.0,32.0,100,30.04,2.5,Calm,Calm,-,0.05,,Overcast,0,2012-12-10 05:53:00
1:14 AM,32.0,32.0,100,30.00,3.0,Calm,Calm,-,0.04,,Overcast,0,2012-12-10 06:14:00
1:20 AM,32.0,32.0,100,29.99,2.5,ENE,3.5,-,0.05,,Overcast,60,2012-12-10 06:20:00
1:29 AM,32.0,32.0,100,29.99,2.5,Calm,Calm,-,0.06,,Overcast,0,2012-12-10 06:29:00
1:40 AM,32.0,32.0,100,29.98,3.0,Calm,Calm,-,0.07,,Overcast,0,2012-12-10 06:40:00
1:53 AM,32.0,32.0,100,30.00,4.0,NE,3.5,-,0.08,,Overcast,40,2012-12-10 06:53:00
2:00 AM,32.0,32.0,100,29.97,4.0,ENE,3.5,-,0.01,,Overcast,60,2012-12-10 07:00:00
2:33 AM,32.0,32.0,100,29.95,2.0,Calm,Calm,-,0.05,,Overcast,0,2012-12-10 07:33:00
2:53 AM,32.0,32.0,100,29.96,5.0,Calm,Calm,-,0.06,,Overcast,0,2012-12-10 07:53:00
3:31 AM,32.0,32.0,100,29.91,6.0,Calm,Calm,-,0.02,,Overcast,0,2012-12-10 08:31:00
3:50 AM,32.0,32.0,100,29.90,5.0,Calm,Calm,-,0.02,,Overcast,0,2012-12-10 08:50:00
3:53 AM,32.0,32.0,100,29.92,5.0,Calm,Calm,-,0.03,,Overcast,0,2012-12-10 08:53:00
4:22 AM,32.0,32.0,100,29.87,2.5,Calm,Calm,-,0.02,,Overcast,0,2012-12-10 09:22:00
4:27 AM,32.0,32.0,100,29.86,3.0,Calm,Calm,-,0.03,,Overcast,0,2012-12-10 09:27:00
4:40 AM,32.0,32.0,100,29.85,4.0,Calm,Calm,-,0.04,,Overcast,0,2012-12-10 09:40:00
4:53 AM,32.0,32.0,100,29.86,4.0,Calm,Calm,-,0.05,,Overcast,0,2012-12-10 09:53:00
5:35 AM,32.0,32.0,100,29.80,2.5,Calm,Calm,-,0.06,,Overcast,0,2012-12-10 10:35:00
5:53 AM,32.0,32.0,100,29.82,3.0,Calm,Calm,-,0.10,,Overcast,0,2012-12-10 10:53:00
6:00 AM,33.8,33.8,100,29.80,4.0,Calm,Calm,-,0.01,,Overcast,0,2012-12-10 11:00:00
6:23 AM,33.8,33.8,100,29.79,2.5,Calm,Calm,-,0.06,Rain,Rain,0,2012-12-10 11:23:00
6:53 AM,33.1,33.1,100,29.79,2.5,Calm,Calm,-,0.15,Rain,Rain,0,2012-12-10 11:53:00
7:18 AM,33.8,33.8,100,29.75,4.0,Calm,Calm,-,0.04,Rain,Light Rain,0,2012-12-10 12:18:00
7:37 AM,33.8,33.8,100,29.75,2.0,Calm,Calm,-,0.09,Rain,Rain,0,2012-12-10 12:37:00
7:47 AM,33.8,33.8,100,29.73,3.0,Calm,Calm,-,0.11,Rain,Light Rain,0,2012-12-10 12:47:00
7:53 AM,33.1,33.1,100,29.75,2.5,Calm,Calm,-,0.11,Rain,Light Rain,0,2012-12-10 12:53:00
8:19 AM,33.8,33.8,100,29.73,1.5,Calm,Calm,-,0.06,Rain,Rain,0,2012-12-10 13:19:00
8:30 AM,33.8,33.8,100,29.72,3.0,Calm,Calm,-,0.06,Rain,Light Rain,0,2012-12-10 13:30:00
8:41 AM,33.8,33.8,100,29.71,2.0,Calm,Calm,-,0.08,Rain,Light Rain,0,2012-12-10 13:41:00
8:53 AM,34.0,34.0,100,29.73,4.0,Calm,Calm,-,0.08,Rain,Light Rain,0,2012-12-10 13:53:00
9:53 AM,35.1,35.1,100,29.70,4.0,Calm,Calm,-,0.02,Rain,Light Rain,0,2012-12-10 14:53:00
10:10 AM,35.6,35.6,100,29.67,2.0,SW,3.5,-,0.00,Rain,Light Rain,230,2012-12-10 15:10:00
10:37 AM,37.4,37.4,100,29.66,3.0,Calm,Calm,-,0.00,,Overcast,0,2012-12-10 15:37:00
10:53 AM,37.0,37.0,100,29.67,3.0,Calm,Calm,-,0.00,,Overcast,0,2012-12-10 15:53:00
11:53 AM,39.9,39.9,100,29.63,3.0,SSE,4.6,-,0.00,Rain,Light Rain,160,2012-12-10 16:53:00
12:01 PM,39.2,39.2,100,29.61,2.5,South,3.5,-,0.00,Rain,Light Rain,180,2012-12-10 17:01:00
12:20 PM,41.0,41.0,100,29.61,2.0,South,4.6,-,0.00,,Overcast,170,2012-12-10 17:20:00
12:31 PM,41.0,41.0,100,29.60,1.8,SSE,4.6,-,0.00,Rain,Light Rain,150,2012-12-10 17:31:00
12:53 PM,41.0,41.0,100,29.62,1.8,Calm,Calm,-,0.00,Rain,Light Rain,0,2012-12-10 17:53:00
1:53 PM,43.0,43.0,100,29.58,1.8,South,3.5,-,0.01,Rain,Light Rain,180,2012-12-10 18:53:00
2:53 PM,46.0,46.0,100,29.56,2.0,SSW,6.9,-,0.00,Rain,Light Rain,210,2012-12-10 19:53:00
3:12 PM,46.4,46.4,100,29.54,3.0,SSW,6.9,-,0.01,Rain,Light Rain,210,2012-12-10 20:12:00
3:21 PM,46.4,46.4,100,29.54,2.0,SSW,9.2,-,N/A,Rain,Light Rain,210,2012-12-10 20:21:00
3:50 PM,48.2,46.4,93,29.53,2.5,SSW,8.1,-,0.06,Rain,Light Rain,210,2012-12-10 20:50:00
3:53 PM,48.0,46.9,96,29.55,3.0,SSW,6.9,-,0.06,Rain,Light Rain,210,2012-12-10 20:53:00
4:29 PM,48.2,48.2,100,29.51,5.0,SW,5.8,-,0.01,Rain,Light Rain,230,2012-12-10 21:29:00
4:53 PM,48.0,48.0,100,29.52,5.0,SSW,6.9,-,0.02,Rain,Light Rain,210,2012-12-10 21:53:00
5:53 PM,48.9,48.9,100,29.52,4.0,SW,4.6,-,0.06,Rain,Light Rain,220,2012-12-10 22:53:00
6:53 PM,48.9,48.9,100,29.51,8.0,SW,4.6,-,0.03,Rain,Light Rain,220,2012-12-10 23:53:00
7:32 PM,48.2,48.2,100,29.50,7.0,SW,3.5,-,0.02,Rain,Light Rain,230,2012-12-11 00:32:00
7:51 PM,48.2,48.2,100,29.51,9.0,WSW,5.8,-,0.02,Rain,Light Rain,250,2012-12-11 00:51:00
7:53 PM,48.0,48.0,100,29.53,10.0,West,4.6,-,0.02,Rain,Light Rain,260,2012-12-11 00:53:00
8:17 PM,46.4,44.6,93,29.53,8.0,NNW,12.7,-,0.01,Rain,Light Rain,340,2012-12-11 01:17:00
8:53 PM,44.1,39.9,85,29.58,10.0,NNW,15.0,-,0.02,,Overcast,340,2012-12-11 01:53:00
9:53 PM,43.0,37.9,82,29.60,10.0,NNE,8.1,-,N/A,,Overcast,20,2012-12-11 02:53:00
10:53 PM,41.0,39.0,93,29.64,10.0,Calm,Calm,-,0.00,Rain,Light Rain,0,2012-12-11 03:53:00
11:53 PM,39.9,39.0,97,29.66,10.0,SSW,4.6,-,0.00,,Overcast,200,2012-12-11 04:53:00